{"data":{"norad_id":67815,"intl_designator":"2026-032U","name":"STARLINK-36797","alt_names":[],"object_type":"PAYLOAD","status":"ACTIVE","operator":null,"country":"US","launch_date":"2026-02-15","launch_site_code":"AFWTR","launch_vehicle":null,"mission":null,"orbit_class":"UNKNOWN","rcs_meters":null,"size_class":null,"mass_kg":null,"dimensions":null,"purposes":["comms"],"wikipedia_slug":null,"has_3d_model":false,"image_url":null,"decayed_at":null,"tle_current":{"epoch":"2026-05-25T01:12:45.569088Z","epoch_age_seconds":74692,"freshness":"FRESH","line1":"1 67815U 26032U   26145.05052742  .00023190  00000+0  71823-3 0  9991","line2":"2 67815  97.2843 333.1491 0001196  91.3882 268.7498 15.33454237 16664","mean_motion":15.33454237,"eccentricity":0.0001196,"inclination_deg":97.2843,"raan_deg":333.1491,"arg_perigee_deg":91.3882,"mean_anomaly_deg":268.7498,"bstar":0.00071823,"rev_number":1666,"period_min":93.905638998212,"perigee_km":464.69719094093,"apogee_km":466.33419266481,"semimajor_km":6843.6526918029,"source":"CELESTRAK","updated_at":"2026-05-25T13:38:21.695824Z"}}}